Location: LDNL
(36.4545°S, 141.6685°E)
Time: 21:58:43
(UTC+11:00)

ISS - Pass Details

Date: 15 December 2021
Orbit: 413 x 422 km, 51.6° (Epoch: 22 January)

Event Time Altitude Azimuth Distance (km) Brightness Sun altitude
Rises 04:50:45 0° 229° (SW) 2,381 0.0 -13.5°
Reaches altitude 10° 04:52:52 10° 229° (SW) 1,512 -1.0 -13.2°
Maximum altitude 04:56:16 89° 140° (SE) 426 -3.8 -12.7°
Drops below altitude 10° 04:59:38 10° 48° (NE) 1,498 -0.9 -12.2°
Sets 05:01:43 0° 48° (NE) 2,356 0.1 -11.9°
